Weather in Orlovka

Russia / Stavropol Krai     43°59′24″N   43°46′13″E
temp.,
°C
wind,
m/s
gust,
m/s
humid.,
%
clouds,
%
prec.,
mm/h
press.,
hPa
HPBL,
m
17 april, sat
sat1700:00+12ese127720 0.0 101812
03:00+11e117599 0.0 101810
06:00+11n2371100 0.0 101848
09:00+15nw81069100 0.0 1019784
12:00+14nnw7769100 0.1 10211204
15:00+14nnw5569100 0.1 1022985
18:00+11nw4680100 0.1 1022379
21:00+10nnw2487100 0.2 1022252
18 april, sun
sun1800:00+10nnw1185100 0.0 102291
03:00+10e2286100 0.0 102169
06:00+9ese3589100 0.0 1020210
09:00+12ese357856 0.0 1019576
12:00+14ese5673100 0.3 1017760
15:00+15ese347596 0.8 1017641
18:00+14e358166 0.6 1017236
21:00+11ese2289100 1.1 101725
19 april, mon
mon1900:00+11ssw2291100 0.3 101816
03:00+11s3592100 0.3 101785
06:00+12sse229190 0.0 101633
09:00+17nne2271100 0.0 1017438
12:00+20e446072 0.0 10151040
15:00+21e565096 0.0 10141673
18:00+19ene3761100 0.1 1014185
21:00+15ene397698 0.1 1016391
20 april, tue
tue2000:00+13se3977100 0.0 1014208
03:00+11se3770100 0.0 1012137
06:00+11se4877100 0.0 1010175
09:00+16ese61064100 0.0 1007399
12:00+21ese6754100 0.0 1005593
15:00+22e3656100 0.0 1004430
18:00+19ese4969100 0.0 1005202
21:00+15nnw347965 0.0 100981
21 april, wed
wed2100:00+15nw81273100 0.1 1012820
03:00+13nw4868100 0.1 1015555
06:00+12se1179100 0.2 1018123
09:00+12se2376100 0.3 1019462
12:00+13ene3370100 0.0 1020812
15:00+11ne4475100 0.1 1021471
18:00+11n2375100 0.0 1022250
21:00+10nnw1177100 0.0 102346